Home > Weather > Kingston > Past weeks

Flag for Canada Weather for the Past 2 Weeks in Kingston, Ontario, Canada

Now
23 °F

Light snow. Mostly cloudy.


Feels Like: 15 °F
Forecast: 19 / 28 °F
Wind: 7 mph from Northeast

Location: Kingston

Current Time: Feb 9, 2016 at 8:26:46 PM

Latest Report: Feb 9, 2016 at 7:00 PM


Visibility: 6 mi

Pressure: 29.58 "Hg

Humidity: 86%

Dew point: 19 °F

Location of KingstonLocation

Historic Weather in Kingston — Graph

°F

Kingston Temperature Yesterday

Maximum temperature yesterday: 28 °F (at 1:00 PM)
Minimum temperature yesterday: 21 °F (at 6:00 AM)
Average temperature yesterday: 24 °F

High & Low Weather Summary for the Past Weeks

 TemperatureHumidityPressure
High46 °F (Feb 3, 7:00 PM)93% (Jan 29, 6:00 AM)30.40 "Hg (Jan 29, 6:00 AM)
Low14 °F (Jan 29, 11:00 PM)40% (Feb 5, 3:00 PM)29.46 "Hg (Jan 29, 6:00 AM)
Average32 °F74%29.90 "Hg
* Reported Jan 25 7:00 PM — Feb 9 7:00 PM, Kingston, Weather by CustomWeather, © 2016

Note: Actual official high and low records may vary slightly from our data, if they occured in-between our weather recording intervals... More about our weather records

Advertising

Kingston Weather History for the Previous 24 Hours

 ConditionsComfort  
Time TempWeatherWind HumidityBarometerVisibility
7:00 PM
Tue, Feb 9
23 °FLight snow. Mostly cloudy.7 mph86%29.58 "Hg6 mi
6:00 PM23 °FLight snow. Overcast.8 mph86%29.58 "Hg3 mi
5:50 PM23 °FLight snow. Mostly cloudy.8 mph86%29.58 "Hg3 mi
5:04 PM25 °FLight snow. Mostly cloudy.6 mph80%29.57 "Hg2 mi
4:00 PM25 °FLight snow. Mostly cloudy.13 mph80%29.55 "Hg15 mi
3:00 PM25 °FOvercast.9 mph80%29.54 "Hg15 mi
2:00 PM25 °FOvercast.14 mph80%29.54 "Hg15 mi
1:00 PM25 °FSnow flurries. Overcast.12 mph74%29.57 "Hg12 mi
12:00 PM23 °FLight snow. Overcast.10 mph80%29.59 "Hg4 mi
11:00 AM21 °FLight snow. Overcast.12 mph86%29.61 "Hg5 mi
10:00 AM21 °FLight snow. Overcast.14 mph86%29.61 "Hg4 mi
9:00 AM21 °FLight snow. Overcast.13 mph80%29.61 "Hg5 mi
8:00 AM21 °FLight snow. Overcast.15 mph86%29.62 "Hg15 mi
7:00 AM21 °FLight snow. Overcast.10 mph86%29.61 "Hg4 mi
6:00 AM21 °FLight snow. Mostly cloudy.15 mph86%29.62 "Hg4 mi
11:00 PM
Mon, Feb 8
21 °FLight mixture of precip. Mostly cloudy.12 mph58%29.72 "Hg15 mi
10:00 PM21 °FOvercast.16 mph58%29.72 "Hg15 mi
9:00 PM21 °FOvercast.16 mph58%29.73 "Hg15 mi
8:00 PM21 °FOvercast.20 mph58%29.75 "Hg15 mi
Weather by CustomWeather, © 2016

See weather overviewHow to use our weather pages